Weather History for KHLG - February, 2014

Change the Weather History Date:

Saturday, February 15, 2014

  Actual Average Record
Temperature  
Mean Temperature 21 °F 32 °F  
Max Temperature 28 °F 40 °F 66 °F (1949)
Min Temperature 14 °F 24 °F -4 °F (2015)
Degree Days  
Heating Degree Days 44 33  
Month to date heating degree days 597 513  
Since 1 July heating degree days 4002 3755  
Cooling Degree Days 0    
Month to date cooling degree days 0  
Year to date cooling degree days 0  
Moisture  
Dew Point 16 °F    
Average Humidity 71    
Maximum Humidity 96    
Minimum Humidity 46    
Precipitation  
Precipitation 0.03 in 0.06 in 0.54 in (1990)
Month to date precipitation 1.18 1.14  
Sea Level Pressure  
Sea Level Pressure 29.85 in    
Wind  
Wind Speed 11 mph (NW)    
Max Wind Speed 20 mph    
Max Gust Speed 26 mph    
Visibility 5 miles    
Events Snow    
T = Trace of Precipitation, MM = Missing Value Source: NWS Daily Summary

Daily Weather History Graph

Daily Weather History Graph

Search for Another Location

Airport or City:

Trip Planner

Search our weather history database for the weather conditions in past years. The results will help you decide how hot, cold, wet, or windy it might be!

Date:

Astronomy

Feb. 15, 2014 Rise Set
Actual Time 7:15 AM EST 5:58 PM EST
Civil Twilight 6:47 AM EST 6:26 PM EST
Nautical Twilight 6:16 AM EST 6:57 PM EST
Astronomical Twilight 5:44 AM EST 7:29 PM EST
Moon 6:57 PM EST (2/15) 7:13 AM EST (2/15)
Length of Visible Light 11h 38m
Length of Day
10h 42m
Full, 100% of the Moon is Illuminated
Feb 15
Full
Feb 22
Last Quarter
Mar 1
New
Mar 8
First Quarter
Mar 16
Full

Hourly Weather History & Observations

Time (EST) Temp. Windchill Dew Point Humidity Pressure Visibility Wind Dir Wind Speed Gust Speed Precip Events Conditions
12:15 AM 25.0 °F 16.3 °F 23.0 °F 92% 29.68 in 1.0 mi North 8.1 mph - 0.01 in Snow Light Snow
12:48 AM 24.8 °F 16.1 °F 23.0 °F 93% 29.67 in 1.0 mi NNE 8.1 mph - 0.02 in Snow Light Snow
12:53 AM 25.0 °F 15.5 °F 23.0 °F 92% 29.72 in 1.0 mi North 9.2 mph - 0.02 in Snow Light Snow
1:30 AM 25.0 °F 15.5 °F 23.0 °F 92% 29.66 in 1.2 mi North 9.2 mph - 0.01 in Snow Light Snow
1:42 AM 25.0 °F 16.3 °F 21.9 °F 88% 29.66 in 1.5 mi North 8.1 mph - 0.01 in Snow Light Snow
1:53 AM 25.0 °F 17.1 °F 21.9 °F 88% 29.71 in 1.5 mi North 6.9 mph - 0.01 in Snow Light Snow
2:03 AM 24.1 °F 13.1 °F 21.9 °F 91% 29.66 in 1.5 mi NNE 11.5 mph - 0.00 in Snow Light Snow
2:28 AM 24.1 °F 16.0 °F 21.0 °F 88% 29.66 in 1.5 mi North 6.9 mph - 0.00 in Snow Light Snow
2:53 AM 23.0 °F 13.9 °F 21.0 °F 92% 29.71 in 1.5 mi North 8.1 mph - 0.00 in Snow Light Snow
3:53 AM 23.0 °F 13.9 °F 19.9 °F 88% 29.71 in 1.0 mi North 8.1 mph - 0.00 in Snow Light Snow
4:09 AM 23.0 °F 12.4 °F 19.9 °F 88% 29.67 in 1.8 mi NNW 10.4 mph - 0.00 in Snow Light Snow
4:53 AM 21.9 °F 10.4 °F 19.9 °F 92% 29.73 in 1.8 mi NNW 11.5 mph - 0.01 in Snow Light Snow
5:08 AM 21.9 °F 11.0 °F 19.9 °F 92% 29.69 in 1.8 mi NNW 10.4 mph - 0.00 in Snow Light Snow
5:51 AM 21.2 °F 10.1 °F 19.4 °F 93% 29.72 in 1.0 mi NW 10.4 mph - 0.00 in Snow Light Snow
5:53 AM 21.9 °F 11.7 °F 19.0 °F 89% 29.77 in 1.0 mi NNW 9.2 mph - 0.00 in Snow Light Snow
6:21 AM 21.0 °F 8.6 °F 19.0 °F 92% 29.74 in 1.2 mi NNW 12.7 mph - 0.00 in Snow Light Snow
6:34 AM 21.0 °F 8.1 °F 18.0 °F 88% 29.75 in 1.2 mi NW 13.8 mph - 0.00 in Snow Light Snow
6:53 AM 21.0 °F 8.1 °F 18.0 °F 88% 29.81 in 1.5 mi NNW 13.8 mph - 0.00 in Snow Light Snow
6:57 AM 21.0 °F 9.9 °F 18.0 °F 88% 29.76 in 1.5 mi NNW 10.4 mph - 0.00 in Snow Light Snow
7:30 AM 21.0 °F 8.6 °F 18.0 °F 88% 29.78 in 1.2 mi NNW 12.7 mph - 0.00 in Snow Light Snow
7:50 AM 21.2 °F 8.9 °F 17.6 °F 86% 29.80 in 0.8 mi NW 12.7 mph - 0.00 in Snow Light Snow
7:53 AM 21.0 °F 9.3 °F 18.0 °F 88% 29.86 in 0.8 mi NW 11.5 mph - 0.00 in Snow Light Snow
7:59 AM 21.0 °F 10.6 °F 18.0 °F 88% 29.81 in 1.5 mi NW 9.2 mph - 0.00 in Snow Light Snow
8:06 AM 21.0 °F 9.9 °F 18.0 °F 88% 29.82 in 3.0 mi NW 10.4 mph - 0.00 in   Overcast
8:16 AM 21.0 °F 10.6 °F 17.1 °F 85% 29.82 in 4.0 mi NW 9.2 mph - 0.00 in   Overcast
8:34 AM 21.9 °F 10.4 °F 16.0 °F 78% 29.83 in 5.0 mi NNW 11.5 mph - 0.00 in   Haze
8:53 AM 21.9 °F 10.4 °F 16.0 °F 78% 29.90 in 5.0 mi NW 11.5 mph 19.6 mph 0.00 in   Haze
9:32 AM 21.9 °F 9.8 °F 16.0 °F 78% 29.86 in 6.0 mi NW 12.7 mph 19.6 mph N/A   Haze
9:51 AM 21.2 °F 8.9 °F 15.8 °F 80% 29.87 in 6.0 mi WNW 12.7 mph 18.4 mph N/A   Haze
9:53 AM 21.9 °F 9.8 °F 16.0 °F 78% 29.93 in 6.0 mi WNW 12.7 mph 18.4 mph N/A   Haze
10:18 AM 23.0 °F 11.1 °F 17.1 °F 78% 29.88 in 4.0 mi NW 12.7 mph - 0.00 in   Haze
10:53 AM 24.1 °F 11.5 °F 17.1 °F 75% 29.94 in 6.0 mi WNW 15.0 mph 23.0 mph 0.00 in   Haze
11:53 AM 24.1 °F 12.0 °F 16.0 °F 71% 29.94 in 4.0 mi NW 13.8 mph - 0.00 in Snow Light Snow
12:33 PM 25.0 °F 13.6 °F 17.1 °F 72% 29.89 in 4.0 mi WNW 12.7 mph - 0.00 in Snow Light Snow
12:53 PM 25.0 °F 14.2 °F 16.0 °F 69% 29.95 in 7.0 mi WNW 11.5 mph 20.7 mph 0.00 in   Overcast
1:01 PM 25.0 °F 12.2 °F 15.1 °F 66% 29.90 in 8.0 mi NW 16.1 mph 21.9 mph N/A   Overcast
1:11 PM 25.0 °F 12.2 °F 15.1 °F 66% 29.90 in 8.0 mi NW 16.1 mph - N/A   Overcast
1:21 PM 25.0 °F 14.2 °F 15.1 °F 66% 29.90 in 9.0 mi WNW 11.5 mph - N/A   Overcast
1:30 PM 25.0 °F 13.1 °F 14.0 °F 63% 29.90 in 10.0 mi NW 13.8 mph - N/A   Overcast
1:53 PM 25.0 °F 13.1 °F 14.0 °F 63% 29.96 in 10.0 mi WNW 13.8 mph - N/A   Overcast
2:43 PM 26.1 °F 15.6 °F 14.0 °F 60% 29.91 in 10.0 mi West 11.5 mph - N/A   Mostly Cloudy
2:53 PM 28.0 °F 16.5 °F 14.0 °F 56% 29.97 in 10.0 mi West 15.0 mph 20.7 mph N/A   Overcast
3:53 PM 27.0 °F 16.1 °F 10.9 °F 51% 29.98 in 10.0 mi West 12.7 mph - N/A   Clear
4:53 PM 26.1 °F 13.6 °F 8.1 °F 47% 30.01 in 10.0 mi WNW 16.1 mph - N/A   Clear
5:53 PM 24.1 °F 13.1 °F 7.0 °F 48% 30.04 in 10.0 mi West 11.5 mph - N/A   Clear
6:53 PM 21.9 °F 11.0 °F 7.0 °F 53% 30.06 in 10.0 mi West 10.4 mph - N/A   Clear
7:53 PM 19.9 °F 7.3 °F 5.0 °F 52% 30.11 in 10.0 mi West 12.7 mph - N/A   Clear
8:53 PM 18.0 °F 7.7 °F 5.0 °F 57% 30.11 in 10.0 mi West 8.1 mph - N/A   Clear
9:53 PM 16.0 °F 5.3 °F 6.1 °F 65% 30.11 in 10.0 mi West 8.1 mph - N/A   Clear
10:53 PM 15.1 °F 6.4 °F 5.0 °F 64% 30.11 in 10.0 mi West 5.8 mph - N/A   Clear
11:53 PM 14.0 °F 6.5 °F 5.0 °F 67% 30.10 in 10.0 mi WSW 4.6 mph - N/A   Clear